594  
ASHW40 PHFO 291643  
RWRHI  
 
WEATHER ROUNDUP FOR HAWAII  
NATIONAL WEATHER SERVICE HONOLULU HI  
600 AM HST SAT AUG 29 2015  
 
THIS IS AN AUTOMATED REPORT THAT HAS NOT BEEN QUALITY CONTROLLED.  
 
NOTE..."FAIR" INDICATES FEW OR NO CLOUDS BELOW 12,000 FEET WITH NO  
SIGNIFICANT WEATHER AND/OR S TO VISIBILITY
.  
 
* - THESE SITES REPORT LIMITED FIELDS  
 
HIZ001>004-291700-  
KAUAI-NIIHAU-  
 
CITY SKY/WX TMP DP RH WIND PRES REMARKS
 
LIHUE APT PTCLDY 76 74 92 W7 29.89R  
PORT ALLEN* NOT AVBL  
POIPU* N/A 75 N/A N/A N3 N/A  
PRINCEVILLE* N/A 73 N/A N/A MISG N/A  
KOKOLE POINT* NOT AVBL  
MOLOAA DAIRY* N/A 77 75 94 SE2 N/A  
WAIMEA HTS* N/A 75 68 78 CALM N/A  
PUU OPAE* N/A 70 64 83 N1 N/A  
PUU LUA* NOT AVBL  
MAKAHA RIDGE* N/A 72 68 88 CALM N/A  

 
 
HIZ005>011-291700-  
OAHU-  
 
CITY SKY/WX TMP DP RH WIND PRES REMARKS
 
HONOLULU PTCLDY 78 73 84 CALM 29.86S  
KALAELOA CLEAR 74 70 87 CALM 29.88S  
KANEOHE MCB PTCLDY 79 73 82 CALM 29.85S  
WHEELER FIELD FAIR 71 70 94 NW3 29.88S  
BELLOWS* N/A N/A N/A N/A NE9 N/A  
KAHUKU* N/A N/A N/A N/A E3 N/A  
WHEELER* NOT AVBL  
WAIANAE HARBOR NOT AVBL  
DILLINGHAM* N/A 72 68 88 MISG N/A  
KAHUKU TRN* N/A 75 70 83 E3G10 N/A  
KAWAILOA* N/A 73 64 73 E3 N/A  
KII* N/A 79 73 83 SE5G13 N/A  
MAKUA RANGE* N/A 73 70 88 SE7 N/A  
OAHU FOREST NW N/A 70 70 100 CALM N/A  
SCHOFIELD BRK* N/A 70 68 94 MISG N/A  
SCHOFIELD S* NOT AVBL  
WAIANAE VLY* N/A 88 82 84 MISG N/A HX 108  
KUAOKALA* N/A 75 68 78 E5G10 N/A  
HONOULIUULI* NOT AVBL  
MOKUOLOE IS* N/A N/A N/A N/A MISG N/A  
PALEHUA* N/A 70 64 83 NE8 N/A  
WAIAWA PHB* NOT AVBL  

 
 
HIZ012>013-291700-  
MOLOKAI-  
 
CITY SKY/WX TMP DP RH WIND PRES REMARKS
 
MOLOKAI AIRPT PTCLDY 78 73 84 NE8 29.88S  
KALAUPAPA NOT AVBL  
MAKAPULAPAI* N/A 79 75 89 E14G22 N/A  
MOLOKAI 1* N/A 77 75 94 CALM N/A  
PUU ALII* N/A 64 64 100 SE2G8 N/A  

 
 
HIZ016-291700-  
KAHOOLAWE-  
 
CITY SKY/WX TMP DP RH WIND PRES REMARKS
 
KAHOOLAWE* N/A 72 N/A N/A E12 N/A  
HAKIOAWA* N/A 74 71 92 MISG 30.32  
HONOKANAIA* N/A 80 73 79 NE8G14 N/A  
KANELOA* N/A 75 73 94 NE7G14 29.94R  
KEALIALALO* N/A 75 72 88 E7G14 29.88S  
LUA MAKIKA* NOT AVBL  

 
 
HIZ014>015-291700-  
LANAI-  
 
CITY SKY/WX TMP DP RH WIND PRES REMARKS
 
LANAI CITY FAIR 70 68 93 E5 29.94R  
LANAI 1* N/A 73 70 88 NE10G16 N/A  

 
 
HIZ017>028-291700-  
MAUI-  
 
CITY SKY/WX TMP DP RH WIND PRES REMARKS
 
KAHULUI PTCLDY 75 70 84 NE7 29.87S  
KAPALUA-W MAUI MOCLDY 77 70 78 E9 29.88  
HANA AIRPORT MOCLDY 75 75 100 CALM 29.92R  
HANA* N/A 77 N/A N/A S3 N/A  
HALEAKALA SUMM N/A 50 37 62 NW1G16 N/A  
MAALAEA BAY* NOT AVBL  
HALEAKALA* NOT AVBL  
KAUPO GAP* N/A 63 59 88 N5G12 N/A  
KULA 1* N/A 56 45 66 E7 N/A  

 
 
HIZ023>026-291700-  
BIG ISLAND OF HAWAII COAST AND LOWER SLOPES-  
 
CITY SKY/WX TMP DP RH WIND PRES REMARKS
 
KAILUA KONA CLEAR 79 66 64 NE9 29.83F  
HILO PTCLDY 72 66 81 SW7 29.87F  
HONOKAA* NOT AVBL  
KAWAIHAE MWT* N/A 81 N/A N/A N5 N/A  
KAWAIHAE* N/A 81 N/A N/A NE3 N/A  
SOUTH POINT* N/A 68 N/A N/A NE1 N/A  
UPOLU AIRPORT* N/A N/A N/A N/A E9 N/A  
KAMUELA* NOT AVBL  
HAKALAU* N/A 48 41 76 SW3 N/A  
KALOKO-HONOKO* N/A 73 68 83 NE5 29.82F  
PALI 2* N/A 66 59 77 N10 N/A  
KEALAKOMO* N/A 73 63 68 NE8 N/A  
KAUPULEHU* N/A 73 63 68 S6 N/A  
KAPAPALA* N/A 61 60 97 NW6 N/A  
LOWER KAHUKU* N/A 57 57 100 VRB3 N/A  
PUHE CS* N/A 79 72 78 NE3 N/A  
PUHO CS* N/A 74 68 82 E3 N/A  
PTA KEAMUKU* N/A 61 55 82 CALM N/A  
WAIKOLOA* N/A 72 61 68 E12G20 N/A  

 
 
HIZ027>028-291700-  
BIG ISLAND OF HAWAII INTERIOR AND SUMMMITS-  
 
CITY SKY/WX TMP DP RH WIND PRES REMARKS
 
BRADSHAW FIELD CLOUDY 52 46 79 SE3 30.22S  
MK VISITOR CEN N/A 52 34 50 N1 N/A  
MAUNA KEA* N/A 39 19 45 N5 N/A  
MAUNA LOA* N/A N/A N/A N/A MISG N/A  
MAUNA LOA 1* NOT AVBL  
PTA KIPUKA* N/A 52 50 93 SE5 N/A  
PTA RANGE 17* N/A 52 45 76 S2G8 N/A  
PTA WEST* N/A 57 54 88 SE8 N/A  
NENE CABIN* N/A 48 39 71 N5 N/A  
AHUMOA* N/A 56 41 57 E6 N/A  
PTA PORTABLE* NOT AVBL  
PUU MALI* N/A 59 41 51 S3 N/A  

 
 
HIC003-291700-  
NORTHWEST ISLANDS-  
 
CITY SKY/WX TMP DP RH WIND PRES REMARKS
 
MIDWAY ISLAND CLEAR 79 73 83 CALM 29.87S  
MIDWAY NOS* NOT AVBL  
FRENCH FRIGATE NOT AVBL  

 
 
PHZ110>124-180-291700-  
BUOY REPORTS  
 
STATION/POSITION TIME TEMP WIND PRES WAVE SWELL
 
AIR SEA DIR/SP/G HT/PER HT/DIR  
(UTC) (F) (DEG/KT/KT) (MB) (FT/S) (FT/D)  
BUOY 51001 1554 81 83 80/ 10/ 14 1012.5  
BUOY 51101 1600 80 83 110/ 10/ 12 1011.8R 9/15 8/300  
BUOY 51100 NOT AVBL  
BUOY 51002 1600 81 83 80/ 12/ 14 1009.8F 6/15 5/270  
BUOY 51003 1600 83 84 70/ 8/ 10 1010.5R 6/14 7/270  
BUOY 51004 1521 80 83 50/ 17/ 19 1008.7R 6/15 3/210  
BARBERS PT BUOY NOT AVBL  
WAIMEA BAY BUOY 1600 82 N/A 4/17 3/300  
KAILUA BAY BUOY 1600 83 N/A 4/ 9 2/ 40  
LANAI BUOY NOT AVBL  
BARBERS PT 2 1600 83 N/A 5/14 3/230  
PAUWELA MAUI 1600 82 N/A 4/17 2/320  
HILO NOT AVBL  
KANEOHE BAY BUOY 1600 83 N/A 5/ 8  
HANALEI KAUAI 1600 83 N/A 6/15 3/310  
KAHULUI HARBOR NOT AVBL  
HONOLULU HARBOR NOT AVBL  
KILO NALU NOT AVBL  
HILO HARBOR NOT AVBL  
MOKUOLOE NOT AVBL  
NAWILIWILI NOT AVBL  
WHOTS BUOY NOT AVBL  
BUOY 51028 NOT AVBL  

 
   
.....................KEY.....................................
 
 
SKY/WX - SKY CONDITIONS/PRESENT WEATHER  
TMP - TEMPERATURE IN FAHRENHEIT  
DWPT - DEWPOINT IN FAHRENHEIT  
RH - RELATIVE HUMIDITY IN PERCENT  
WIND - DIRECTION AND SPEED /MPH FOR ISLANDS...KTS FOR BUOYS/  
PRES - MEAN SEA LEVEL PRESSURE IN INCHES OF HG  
VSB - VISIBILITY IN MILES  
HX - HEAT INDEX  
WCI - WIND CHILL INDEX  
VRB - VARIABLE WIND DIRECTION  
N/A - NOT AVAILABLE  
 
CLICK HERE TO GO TO PREVIOUS BULLETINS.

The Nexlab HI Page Main Text Page